#timestamp,LO_Frequency,Hit,StdDev 
1685026815.2,286046928.1,N
1685026835.0,286046930.3,N
1685026835.9,286046930.3,N
1685026855.8,286046926.1,N
1685026875.6,286046930.3,N
1685026895.4,286046928.0,Y
1685026915.3,286046993.4,P
1685026935.1,286046991.9,N
1685026955.9,286046992.5,N
1685026975.7,286046996.0,N
1685026995.5,286046994.1,N
1685027015.4,286046994.1,N
1685027035.2,286046991.9,N
1685027055.0,286046991.0,N
1685027056.0,286046991.0,N
1685027075.8,286046991.7,N
1685027095.6,286046994.3,N
1685027115.5,286046992.7,N
1685027135.3,286046990.8,N
1685027155.1,286046992.0,N
1685027175.9,286046990.8,N
1685027195.7,286046993.0,N
1685027215.6,286046992.8,N
1685027235.4,286046993.2,N
1685027255.2,286046993.0,N
1685027275.1,286046992.5,N
1685027276.0,286046992.5,N
1685027295.8,286046998.9,N
1685027315.6,286046997.9,N
1685027335.5,286046066.5,Y
1685027355.3,286047005.7,P
1685027375.2,286047005.3,N
1685027395.9,286047005.0,N
1685027415.7,286047001.7,N
1685027435.6,286047068.3,Y
1685027455.4,286047005.4,P
1685027475.2,286047004.5,N
1685027495.1,286047001.4,N
1685027496.0,286047001.4,N
1685027515.8,286047001.3,N
1685027535.7,286047005.7,Y
1685027555.5,286047000.9,P
1685027575.3,286047002.0,N
1685027595.2,286046999.9,N
1685027615.0,286047000.5,N
1685027615.9,286047000.5,N
1685027635.8,286047000.3,N
1685027655.6,286047001.1,N
1685027675.4,286047001.3,N
1685027695.3,286047003.3,Y
1685027715.1,286047001.6,P
1685027735.8,286046999.8,N
1685027755.7,286047001.7,N
1685027775.5,286047002.3,Y
1685027795.4,286047002.7,P
1685027815.2,286046996.5,P
1685027835.0,286047000.5,N
1685027835.9,286047000.5,N
1685027855.8,286047001.2,N
1685027875.6,286047000.7,N
1685027895.4,286047000.1,N
1685027915.3,286047001.2,N
1685027935.1,286047001.0,N
1685027955.9,286047005.7,Y
1685027975.7,286047001.6,P
1685027995.5,286047002.5,P
1685028015.4,286047003.2,P
1685028035.2,286047188.7,Y
1685028055.1,286047000.7,P
1685028056.0,286047000.7,N
1685028075.8,286047099.9,P
1685028095.6,286046999.7,N
1685028115.5,286046998.6,N
1685028135.3,286047196.9,Y
1685028155.1,286047094.3,P
1685028175.9,286047189.3,P
1685028195.7,286046748.6,P
1685028215.6,286047097.4,N
1685028235.4,286046984.2,N
1685028255.2,286047098.0,N
1685028275.1,286047213.7,N
1685028276.0,286047213.7,N
1685028295.8,286046921.6,N
1685028315.6,286047209.2,N
1685028335.5,286047143.0,N
1685028355.3,286046986.8,N
1685028375.2,286047026.3,N
1685028395.9,286047142.4,N
1685028415.7,286047103.0,N
1685028435.6,286046997.6,N
1685028455.4,286046986.8,N
1685028475.2,286046985.8,N
1685028495.1,286047047.8,N
1685028496.0,286047047.8,N
1685028515.8,286047153.2,N
1685028535.7,286047154.2,N
1685028555.5,286047188.0,N
1685028575.3,286047119.0,N
1685028595.2,286047121.0,N
1685028615.9,286047114.3,N
1685028635.7,286047321.5,Y
1685028655.6,286047235.8,P
1685028675.4,286046300.0,P
1685028695.3,286046303.5,N
1685028715.1,286046384.9,N
1685028716.0,286046384.9,N
1685028735.8,286046756.7,N
1685028755.7,286046442.3,N
1685028775.5,286046383.5,N
1685028795.3,286046440.0,N
1685028815.2,286046379.3,N
1685028835.0,286046138.6,N
1685028835.9,286046138.6,N
1685028855.8,286046378.8,N
1685028875.6,286046498.9,N
1685028895.4,286045891.0,Y
1685028915.3,286045906.6,P
1685028935.1,286045988.8,P
1685028955.8,286046058.5,P
1685028975.7,286046057.6,Y
1685028995.5,286046800.4,P
1685029015.4,286046799.4,N
1685029035.2,286046799.2,N
1685029055.0,286047393.0,N
1685029055.9,286047393.0,N
1685029075.8,286047396.2,N
1685029095.6,286046927.5,N
1685029115.5,286045936.2,N
1685029135.3,286046908.8,N
1685029155.1,286046784.5,N
1685029175.9,286046248.2,N
1685029195.7,286046248.7,N
1685029215.5,286046249.3,N
1685029235.4,286046171.9,N
1685029255.2,286048848.2,Y
1685029275.1,286046578.1,P
1685029276.0,286046578.1,P
1685029295.8,286046549.0,P
1685029315.6,286045089.7,Y
1685029335.5,286049578.4,P
1685029355.3,286048841.1,N
1685029375.1,286048613.4,N
1685029395.9,286048842.4,N
1685029415.7,286048840.9,N
1685029435.6,286048839.6,N
1685029455.4,286048835.4,N
1685029475.2,286048723.0,N
1685029495.1,286048521.7,N
1685029496.0,286048521.7,N
1685029515.8,286048679.5,N
1685029535.6,286048834.9,N
1685029555.5,286048840.4,N
1685029575.3,286048304.7,N
1685029595.2,286049035.6,Y
1685029615.9,286047548.1,P
1685029635.7,286047409.4,N
1685029655.6,286047410.2,N
1685029675.4,286047416.2,N
1685029695.2,286047186.5,N
1685029715.1,286047188.0,N
1685029716.0,286047188.0,N
1685029735.8,286046562.3,N
1685029755.7,286046563.0,N
1685029775.5,286046606.8,N
1685029795.3,286046600.1,N
1685029815.2,286046522.2,N
1685029835.0,286047088.8,N
1685029835.9,286047088.8,N
1685029855.7,286047608.6,N
1685029875.6,286047606.9,N
1685029895.4,286047323.5,N
1685029915.3,286046573.4,N
1685029935.1,286047085.5,N
1685029936.0,286047085.5,N
1685029955.8,286047085.6,N
1685029975.7,286046825.3,N
1685029995.5,286047030.1,N
1685030015.3,286046272.3,N
1685030035.2,286046485.2,N
1685030055.0,286045967.0,N
1685030055.9,286045967.0,N
1685030075.8,286045952.7,N
1685030095.6,286045967.9,N
1685030115.4,286045976.4,N
1685030135.3,286046245.8,N
1685030155.1,286045978.9,N
1685030175.8,286046986.6,N
1685030195.7,286046524.7,N
1685030215.5,286047412.2,N
1685030235.4,286046056.1,N
1685030255.2,286046527.6,N
1685030275.0,286045973.5,N
1685030275.9,286045973.5,N
1685030295.8,286045966.5,N
1685030315.6,286045968.5,N
1685030335.4,286045966.1,N
1685030355.3,286045970.5,N
1685030375.1,286046248.9,N
1685030395.9,286046017.3,N
